�������l�o���
Date,Time,MP-1(��Sv/h),MP-2(��Sv/h),MP-3(��Sv/h),MP-4(��Sv/h),MP-5(��Sv/h),MP-6(��Sv/h),MP-7(��Sv/h),MP-8(��Sv/h),����,����(m/s),���J
2019/05/16,00:00,0.739,1.068,0.744,1.357,0.993,0.432,0.759,0.720,��,1.2,��
2019/05/16,00:10,0.737,1.066,0.743,1.356,0.994,0.432,0.758,0.719,��,1.7,��
2019/05/16,00:20,0.739,1.067,0.743,1.356,0.993,0.433,0.760,0.719,��,2.5,��
2019/05/16,00:30,0.739,1.068,0.742,1.355,0.995,0.432,0.758,0.717,��,2.3,��
2019/05/16,00:40,0.738,1.065,0.742,1.356,0.994,0.431,0.759,0.718,��,1.7,��
2019/05/16,00:50,0.739,1.068,0.742,1.355,0.994,0.432,0.758,0.719,��,1.2,��
2019/05/16,01:00,0.737,1.069,0.744,1.355,0.995,0.432,0.759,0.718,-,CALM,��
2019/05/16,01:10,0.739,1.068,0.745,1.357,0.995,0.433,0.759,0.720,�k�k��,1.7,��
2019/05/16,01:20,0.738,1.066,0.743,1.353,0.993,0.430,0.759,0.719,�k�k��,2.0,��
2019/05/16,01:30,0.738,1.067,0.744,1.354,0.994,0.433,0.760,0.719,�k��,2.8,��
2019/05/16,01:40,0.738,1.069,0.741,1.356,0.994,0.433,0.757,0.718,�k��,2.9,��
2019/05/16,01:50,0.739,1.070,0.743,1.358,0.995,0.431,0.760,0.720,�k�k��,3.0,��
2019/05/16,02:00,0.738,1.067,0.743,1.357,0.995,0.432,0.760,0.720,�k�k��,3.3,��
2019/05/16,02:10,0.737,1.069,0.743,1.358,0.995,0.433,0.758,0.718,�k�k��,3.3,��
2019/05/16,02:20,0.738,1.066,0.743,1.355,0.996,0.431,0.759,0.719,�k��,3.2,��
2019/05/16,02:30,0.737,1.068,0.743,1.355,0.994,0.431,0.759,0.719,�k��,2.8,��
2019/05/16,02:40,0.737,1.066,0.743,1.357,0.994,0.431,0.759,0.720,�k�k��,2.3,��
2019/05/16,02:50,0.738,1.068,0.743,1.356,0.993,0.430,0.760,0.720,�k��,2.0,��
2019/05/16,03:00,0.737,1.068,0.744,1.355,0.992,0.431,0.759,0.719,�k��,2.6,��
2019/05/16,03:10,0.739,1.067,0.743,1.357,0.994,0.431,0.758,0.718,�k�k��,2.8,��
2019/05/16,03:20,0.737,1.064,0.743,1.354,0.992,0.431,0.758,0.721,�k�k��,2.0,��
2019/05/16,03:30,0.738,1.068,0.743,1.357,0.991,0.432,0.759,0.720,�k�k��,1.7,��
2019/05/16,03:40,0.738,1.068,0.742,1.357,0.994,0.432,0.757,0.718,�k�k��,1.4,��
2019/05/16,03:50,0.736,1.068,0.743,1.357,0.994,0.431,0.759,0.719,�k�k��,0.9,��
2019/05/16,04:00,0.737,1.066,0.741,1.356,0.994,0.431,0.758,0.720,�k�k��,1.5,��
2019/05/16,04:10,0.737,1.069,0.744,1.355,0.995,0.431,0.760,0.719,�k�k��,2.0,��
2019/05/16,04:20,0.736,1.067,0.743,1.356,0.994,0.431,0.758,0.718,�k�k��,1.9,��
2019/05/16,04:30,0.737,1.065,0.742,1.356,0.994,0.433,0.759,0.721,�k,1.2,��
2019/05/16,04:40,0.736,1.066,0.744,1.355,0.994,0.431,0.759,0.718,�k�k��,1.1,��
2019/05/16,04:50,0.737,1.068,0.740,1.356,0.994,0.430,0.759,0.717,�k,1.4,��
2019/05/16,05:00,0.735,1.067,0.743,1.357,0.992,0.432,0.757,0.720,�k�k��,1.1,��
2019/05/16,05:10,0.736,1.066,0.743,1.357,0.992,0.431,0.757,0.719,�k,2.0,��
2019/05/16,05:20,0.736,1.068,0.741,1.355,0.995,0.430,0.759,0.718,�k�k��,2.0,��
2019/05/16,05:30,0.737,1.068,0.742,1.355,0.994,0.431,0.759,0.719,�k�k��,1.2,��
2019/05/16,05:40,0.740,1.068,0.743,1.355,0.995,0.429,0.758,0.719,���k��,1.4,��
2019/05/16,05:50,0.737,1.066,0.742,1.353,0.995,0.431,0.758,0.720,�k�k��,1.5,��
2019/05/16,06:00,0.738,1.069,0.741,1.354,0.996,0.431,0.758,0.719,�k�k��,1.7,��
2019/05/16,06:10,0.736,1.067,0.741,1.355,0.995,0.430,0.758,0.719,�k,1.7,��
2019/05/16,06:20,0.737,1.069,0.743,1.358,0.995,0.430,0.757,0.718,�k,2.0,��
2019/05/16,06:30,0.738,1.070,0.742,1.356,0.994,0.432,0.758,0.719,�k�k��,1.7,��
2019/05/16,06:40,0.737,1.068,0.742,1.353,0.994,0.432,0.759,0.718,�k��,0.9,��
2019/05/16,06:50,0.738,1.067,0.742,1.356,0.993,0.431,0.757,0.720,�k,1.5,��
2019/05/16,07:00,0.739,1.068,0.742,1.354,0.995,0.430,0.757,0.720,�k,1.5,��
2019/05/16,07:10,0.734,1.065,0.742,1.353,0.994,0.432,0.757,0.720,�k,2.3,��
2019/05/16,07:20,0.738,1.066,0.742,1.354,0.995,0.430,0.759,0.720,�k,1.7,��
2019/05/16,07:30,0.738,1.065,0.744,1.354,0.994,0.431,0.758,0.719,�k��,2.0,��
2019/05/16,07:40,0.738,1.065,0.744,1.352,0.994,0.430,0.758,0.718,�k��,2.0,��
2019/05/16,07:50,0.738,1.068,0.740,1.354,0.994,0.430,0.756,0.718,�k��,2.0,��
2019/05/16,08:00,0.738,1.068,0.740,1.355,0.995,0.429,0.756,0.718,�k�k��,2.3,��
2019/05/16,08:10,0.738,1.066,0.743,1.355,0.993,0.429,0.756,0.720,�k�k��,2.3,��
2019/05/16,08:20,0.736,1.066,0.741,1.356,0.995,0.429,0.757,0.718,�k��,2.0,��
2019/05/16,08:30,0.736,1.068,0.742,1.355,0.992,0.431,0.756,0.717,�k�k��,2.3,��
2019/05/16,08:40,0.736,1.067,0.744,1.355,0.994,0.430,0.757,0.717,�k��,2.0,��
2019/05/16,08:50,0.736,1.065,0.742,1.354,0.995,0.429,0.758,0.717,�k��,2.6,��
2019/05/16,09:00,0.736,1.064,0.742,1.354,0.993,0.429,0.756,0.718,�k��,2.3,��
2019/05/16,09:10,0.734,1.063,0.741,1.354,0.993,0.429,0.757,0.717,�k�k��,2.3,��
2019/05/16,09:20,0.737,1.060,0.741,1.356,0.993,0.427,0.758,0.717,�k�k��,2.3,��
2019/05/16,09:30,0.738,1.064,0.739,1.358,0.995,0.429,0.758,0.718,�k�k��,2.6,��
2019/05/16,09:40,0.738,1.064,0.741,1.357,0.995,0.429,0.760,0.718,�k�k��,2.8,��
2019/05/16,09:50,0.735,1.062,0.741,1.353,0.995,0.431,0.757,0.717,���k��,3.1,��
2019/05/16,10:00,0.737,1.066,0.741,1.357,0.997,0.431,0.758,0.717,�k��,2.0,��
2019/05/16,10:10,0.736,1.070,0.742,1.358,0.996,0.429,0.757,0.718,�k��,2.0,��
2019/05/16,10:20,0.741,1.066,0.744,1.357,0.998,0.429,0.757,0.716,���k��,2.3,��
2019/05/16,10:30,0.739,1.070,0.742,1.357,0.997,0.429,0.759,0.717,���쓌,1.5,��
2019/05/16,10:40,0.739,1.070,0.741,1.360,1.000,0.431,0.761,0.715,���k��,2.0,��
2019/05/16,10:50,0.740,1.070,0.742,1.360,0.998,0.429,0.758,0.716,���k��,2.6,��
2019/05/16,11:00,0.739,1.068,0.743,1.359,0.999,0.428,0.759,0.719,��,2.6,��
2019/05/16,11:10,0.739,1.070,0.743,1.358,1.001,0.430,0.760,0.718,��,2.5,��
2019/05/16,11:20,0.740,1.070,0.744,1.358,1.000,0.430,0.760,0.718,��,2.5,��
2019/05/16,11:30,0.739,1.072,0.744,1.358,0.999,0.431,0.759,0.719,��,2.6,��
2019/05/16,11:40,0.741,1.073,0.744,1.354,1.002,0.430,0.759,0.717,��,2.2,��
2019/05/16,11:50,0.741,1.072,0.742,1.356,1.000,0.431,0.761,0.718,���쓌,2.6,��
2019/05/16,12:00,0.742,1.077,0.744,1.355,1.001,0.430,0.759,0.717,���k��,2.0,��
2019/05/16,12:10,0.743,1.074,0.746,1.359,1.002,0.429,0.760,0.718,���k��,2.0,��
2019/05/16,12:20,0.742,1.075,0.744,1.358,1.003,0.431,0.760,0.718,��,2.0,��
2019/05/16,12:30,0.743,1.076,0.744,1.360,1.005,0.430,0.757,0.719,���k��,1.7,��
2019/05/16,12:40,0.743,1.076,0.746,1.358,1.003,0.431,0.759,0.719,��,1.5,��
2019/05/16,12:50,0.742,1.076,0.745,1.358,1.003,0.431,0.760,0.718,���k��,2.0,��
2019/05/16,13:00,0.741,1.078,0.745,1.362,1.004,0.431,0.759,0.717,�k�k��,1.7,��
2019/05/16,13:10,0.743,1.079,0.748,1.360,1.004,0.432,0.759,0.718,�k��,2.3,��
2019/05/16,13:20,0.744,1.079,0.746,1.359,1.005,0.431,0.759,0.718,�k�k��,2.0,��
2019/05/16,13:30,0.743,1.076,0.745,1.359,1.007,0.432,0.757,0.718,���k��,2.6,��
2019/05/16,13:40,0.742,1.076,0.747,1.360,1.007,0.431,0.757,0.718,���k��,2.3,��
2019/05/16,13:50,0.743,1.077,0.745,1.360,1.007,0.431,0.759,0.718,���k��,2.6,��
2019/05/16,14:00,0.744,1.080,0.746,1.362,1.006,0.431,0.758,0.719,���k��,3.1,��
2019/05/16,14:10,0.743,1.078,0.746,1.360,1.008,0.431,0.761,0.720,�k��,1.4,��
2019/05/16,14:20,0.744,1.079,0.748,1.360,1.006,0.430,0.760,0.719,�k,0.8,��
2019/05/16,14:30,0.743,1.078,0.748,1.361,1.007,0.432,0.759,0.720,-,CALM,��
2019/05/16,14:40,0.744,1.078,0.746,1.361,1.008,0.431,0.759,0.718,-,CALM,��
2019/05/16,14:50,0.743,1.082,0.747,1.362,1.009,0.432,0.759,0.719,��쐼,1.5,��
2019/05/16,15:00,0.744,1.082,0.748,1.361,1.008,0.431,0.760,0.718,��쓌,1.9,��
2019/05/16,15:10,0.743,1.083,0.747,1.362,1.007,0.432,0.761,0.720,�쓌,2.0,��
2019/05/16,15:20,0.741,1.081,0.748,1.361,1.008,0.434,0.757,0.718,�쓌,1.7,��
2019/05/16,15:30,0.742,1.081,0.747,1.362,1.008,0.431,0.760,0.719,�쓌,1.1,��
2019/05/16,15:40,0.742,1.082,0.746,1.361,1.009,0.431,0.759,0.719,�쓌,2.0,��
2019/05/16,15:50,0.743,1.085,0.747,1.363,1.007,0.432,0.761,0.718,��쓌,3.3,��
2019/05/16,16:00,0.743,1.086,0.746,1.365,1.006,0.429,0.760,0.719,��쓌,3.7,��
2019/05/16,16:10,0.743,1.082,0.747,1.362,1.008,0.433,0.758,0.716,��쓌,3.1,��
2019/05/16,16:20,0.744,1.086,0.746,1.364,1.007,0.432,0.759,0.719,��쓌,3.9,��
2019/05/16,16:30,0.744,1.086,0.749,1.368,1.007,0.432,0.760,0.719,��쓌,4.1,��
2019/05/16,16:40,0.745,1.087,0.749,1.364,1.007,0.432,0.761,0.719,��쓌,4.6,��
2019/05/16,16:50,0.746,1.087,0.749,1.367,1.007,0.433,0.759,0.718,��쓌,5.2,��
2019/05/16,17:00,0.747,1.087,0.752,1.365,1.009,0.432,0.759,0.719,��쓌,4.9,��
2019/05/16,17:10,0.746,1.089,0.751,1.369,1.006,0.433,0.758,0.718,��쓌,5.6,��
2019/05/16,17:20,0.746,1.086,0.750,1.366,1.009,0.432,0.760,0.719,��쓌,5.6,��
2019/05/16,17:30,0.748,1.088,0.752,1.369,1.008,0.433,0.760,0.719,��쓌,6.2,��
2019/05/16,17:40,0.745,1.091,0.750,1.366,1.010,0.433,0.759,0.719,��쓌,6.3,��
2019/05/16,17:50,0.746,1.091,0.752,1.365,1.008,0.433,0.758,0.718,��,6.3,��
2019/05/16,18:00,0.747,1.090,0.752,1.365,1.007,0.433,0.760,0.720,��,6.1,��
2019/05/16,18:10,0.749,1.090,0.750,1.366,1.009,0.432,0.759,0.719,��,7.1,��
2019/05/16,18:20,0.750,1.087,0.753,1.368,1.009,0.434,0.760,0.720,��,6.6,��
2019/05/16,18:30,0.747,1.092,0.751,1.368,1.007,0.435,0.759,0.721,��,6.4,��
2019/05/16,18:40,0.748,1.088,0.750,1.367,1.009,0.433,0.760,0.722,��,7.4,��
2019/05/16,18:50,0.746,1.089,0.752,1.365,1.008,0.435,0.760,0.722,��,7.3,��
2019/05/16,19:00,0.746,1.090,0.754,1.366,1.008,0.436,0.760,0.720,��,7.0,��
2019/05/16,19:10,0.747,1.090,0.751,1.365,1.010,0.435,0.761,0.722,��,6.6,��
2019/05/16,19:20,0.748,1.086,0.751,1.368,1.011,0.434,0.762,0.723,��,6.2,��
2019/05/16,19:30,0.745,1.088,0.750,1.367,1.012,0.435,0.763,0.720,��,6.1,��
2019/05/16,19:40,0.747,1.088,0.751,1.367,1.008,0.436,0.761,0.721,��,5.8,��
2019/05/16,19:50,0.746,1.088,0.752,1.368,1.013,0.435,0.762,0.722,��,6.1,��
2019/05/16,20:00,0.748,1.089,0.751,1.366,1.011,0.436,0.763,0.721,��,6.3,��
2019/05/16,20:10,0.747,1.087,0.751,1.367,1.008,0.435,0.763,0.720,��,5.1,��
2019/05/16,20:20,0.748,1.087,0.751,1.367,1.011,0.435,0.760,0.722,��,4.3,��
2019/05/16,20:30,0.746,1.088,0.752,1.365,1.008,0.435,0.764,0.721,��,5.0,��
2019/05/16,20:40,0.745,1.088,0.751,1.368,1.011,0.435,0.763,0.721,��,6.0,��
2019/05/16,20:50,0.748,1.089,0.751,1.367,1.011,0.435,0.762,0.720,��,5.7,��
2019/05/16,21:00,0.745,1.089,0.749,1.368,1.009,0.434,0.763,0.721,��,5.2,��
2019/05/16,21:10,0.749,1.088,0.753,1.368,1.011,0.434,0.763,0.720,��,4.7,��
2019/05/16,21:20,0.747,1.088,0.751,1.366,1.008,0.434,0.763,0.720,��,3.3,��
2019/05/16,21:30,0.746,1.088,0.750,1.366,1.010,0.436,0.763,0.722,��,5.1,��
2019/05/16,21:40,0.748,1.088,0.752,1.366,1.012,0.433,0.764,0.720,��,5.1,��
2019/05/16,21:50,0.746,1.086,0.751,1.368,1.010,0.435,0.763,0.721,��,5.8,��
2019/05/16,22:00,0.745,1.089,0.750,1.368,1.010,0.433,0.762,0.722,��,5.7,��
2019/05/16,22:10,0.746,1.087,0.749,1.366,1.009,0.434,0.763,0.721,��,6.1,��
2019/05/16,22:20,0.747,1.087,0.750,1.366,1.009,0.435,0.762,0.720,��쐼,5.7,��
2019/05/16,22:30,0.747,1.086,0.750,1.368,1.009,0.435,0.761,0.721,��쐼,6.0,��
2019/05/16,22:40,0.746,1.088,0.751,1.366,1.008,0.434,0.763,0.721,��,5.7,��
2019/05/16,22:50,0.746,1.087,0.752,1.367,1.008,0.435,0.762,0.720,��,5.3,��
2019/05/16,23:00,0.746,1.084,0.751,1.366,1.007,0.435,0.762,0.721,��,5.2,��
2019/05/16,23:10,0.747,1.086,0.751,1.365,1.011,0.435,0.761,0.718,��,4.9,��
2019/05/16,23:20,0.747,1.087,0.751,1.371,1.010,0.436,0.764,0.720,��쐼,4.1,��
2019/05/16,23:30,0.747,1.085,0.752,1.367,1.011,0.433,0.761,0.722,�쐼,3.3,��
2019/05/16,23:40,0.744,1.085,0.751,1.365,1.011,0.434,0.762,0.721,�쐼,3.5,��
2019/05/16,23:50,0.747,1.085,0.752,1.366,1.008,0.434,0.763,0.722,�쐼,3.5,��
